Find Starlink 32168

NORAD ID: 60335 Int'l Des: 2024-136 Owner: SPXS Country: US Constellation: starlink operational
LEOCIRCULAR

Aktuelle Ansicht

3D-Globus wird geladen...

Über Starlink 32168

Beschreibung wird geladen...

Nächste Überflüge

Passes for default location (London). Set your location on the main map for personalized predictions.

Höhenverlauf

Loading altitude history...

Zweizeiliger Elementsatz

1 60335U 24136G 26158.89572282 -.00004471 00000-0 -13885-3 0 9994
2 60335 53.1624 16.8062 0001118 109.3335 250.7787 15.30213917103471
Epoch: 7. Juni 2026 • Age: 20 hours

Aktueller Status

Höhe 481.0 km
Geschwindigkeit 7.62 km/s
Subsatellitenpunkt -19.13°S, 165.77°W
Startdatum 2. Aug. 2024
Alter 1.8 years
Typ internet

Technische Details

Klassifizierung Payload
Masse 730.00 kg
Trockenmasse 700.00 kg
Gesamtmasse 730.00 kg
Länge 0.30 m
Durchmesser 4.10 m
Spannweite 29.00 m
Form Box + pan
Hersteller SPXS
Bus-Typ Starlink V2M
Phasenstatus In Orbit
Besitzer/Staat SPXS/US

Most Searched